sat.trackr.live / text

‹ back to catalog

STARLINK-32102

NORAD 59699 · 2024-086T

PAYLOAD ACTIVE UNKNOWN

§ Identity

Operator
Country
US
Launch date
2024-05-08
Launch site
AFETR
Launch vehicle
Mass (kg)
RCS (m²)

Purposes: comms

External: N2YO · Heavens-Above · Gunter

§ Orbital elements

Epoch: 2026-09-21T15:39:34.014528Z

Period
94.27 min
Inclination
43.0014°
Eccentricity
0.0001315
Mean motion
15.27581175 rev/d
Perigee alt
482.1 km
Apogee alt
483.9 km
Semi-major
6,861.2 km
B*
3.7478e-4
RAAN
33.0712°
Arg perigee
275.1905°
Mean anomaly
84.8797°
Rev number
13,408

§ Raw data

STARLINK-321021 59699U 24086T   26264.65247702  .00010065  00000+0  37478-3 0  99942 59699  43.0014  33.0712 0001315 275.1905  84.8797 15.27581175134088

JSON: /api/v1/satellites/59699 · /tle

For live sub-satellite position, see the globe view (requires WebGL).

§ Visibility from observer

Set your observer location to see the next 7 days of passes ≥ 10°. The values pass through the URL so the page stays shareable.

No JS? Fill the form by hand. The geolocation button needs JavaScript.